Theta_e
313 313 313 314 314 313 313 314 314 314 314 314 315 315 315 315 315 312 305 313 314 322 318 305 305 303 301 298 299 304 295 291 294 296 299 305 304 309 310 306 310 316 317 323 329
312 312 312 313 313 313 313 314 314 314 314 314 314 315 315 314 308 308 317 320 322 321 305 300 299 301 294 295 294 297 293 294 299 299 298 302 302 305 305 305 306 320 325 328 327
311 311 312 312 312 312 313 313 313 313 314 314 314 314 314 313 300 301 314 315 317 317 305 302 301 298 293 293 291 291 293 298 301 302 303 301 302 302 304 303 304 310 320 324 324
311 311 311 311 311 312 312 313 313 313 313 314 314 313 315 307 286 305 318 316 317 312 303 300 299 293 291 290 293 288 292 293 295 298 297 298 301 300 300 306 310 315 324 324 323
310 310 310 310 310 311 311 311 312 312 313 313 313 313 307 296 296 306 315 312 308 309 305 300 297 297 292 292 292 288 290 294 295 295 296 299 299 299 301 305 309 320 324 322 322
309 309 309 309 310 310 311 312 312 312 313 313 313 312 300 290 305 309 308 307 305 306 304 304 301 301 296 294 291 292 294 294 295 295 296 296 297 301 302 304 305 318 322 322 322
309 309 309 309 310 310 310 311 312 312 312 311 311 307 299 295 304 306 306 306 306 303 302 305 304 299 297 293 297 295 289 292 293 293 293 296 293 295 302 304 303 306 320 322 322
308 308 309 309 309 309 310 311 311 310 310 310 310 302 293 306 304 306 306 304 308 307 303 303 305 299 295 296 294 290 289 282 289 292 293 292 286 296 301 301 302 302 309 318 322
307 307 308 307 308 309 310 311 311 308 308 309 303 298 293 309 301 304 303 300 304 306 303 304 299 293 293 287 283 285 280 283 286 293 292 290 288 295 299 300 300 301 304 309 317
306 307 308 308 308 309 310 312 309 307 306 307 305 293 298 296 301 303 302 303 302 301 300 296 292 286 285 282 276 280 281 283 283 289 291 289 288 292 296 298 298 301 302 304 314
306 307 308 308 309 310 306 300 292 292 295 292 293 295 297 301 304 300 304 302 301 297 287 291 284 280 284 285 286 285 283 282 286 290 289 288 290 294 294 297 297 297 301 302 314
306 307 308 308 308 310 303 294 295 295 286 297 297 298 300 302 295 299 303 294 293 287 290 284 280 287 290 289 287 284 282 281 285 288 290 288 288 293 296 297 297 297 298 300 309
306 306 308 307 307 302 298 297 302 300 287 294 297 297 298 301 295 297 300 296 290 287 287 280 285 290 288 286 284 284 282 282 282 287 289 288 286 291 294 295 297 298 299 300 306
305 306 308 307 299 298 295 303 302 300 275 284 293 297 298 299 293 303 302 295 291 286 288 284 289 288 285 285 286 281 287 286 285 284 279 289 279 286 290 292 294 296 298 299 299
304 305 306 306 296 295 299 302 302 298 267 286 290 300 297 293 293 294 300 294 287 287 288 284 286 286 284 285 288 283 289 287 287 284 284 285 277 284 289 289 291 295 297 298 301
304 305 304 303 298 299 302 300 298 277 266 276 288 287 289 292 292 294 294 296 293 288 288 286 292 289 287 288 289 291 288 286 287 284 278 283 282 284 285 288 289 289 291 296 298
304 304 302 303 295 302 301 293 276 270 279 274 280 286 286 286 286 288 289 286 283 279 277 281 286 290 291 287 290 289 285 273 269 269 273 284 282 284 289 289 288 289 290 292 294
305 302 301 302 301 300 294 278 267 267 269 285 285 285 283 284 283 285 286 280 288 286 281 278 273 284 289 287 285 284 285 278 273 274 275 282 278 283 289 290 293 292 292 293 294
304 296 295 299 301 297 282 268 270 273 282 281 282 274 275 283 281 278 281 285 286 288 281 279 276 287 289 290 288 284 280 286 280 275 275 279 282 287 287 287 291 291 292 292 293
294 291 293 300 299 291 275 277 274 286 286 285 275 278 268 276 275 275 278 287 283 288 290 285 278 283 286 289 289 286 289 280 280 268 271 278 277 277 283 284 288 289 290 291 293
291 284 295 300 294 280 269 271 277 286 287 283 279 278 279 278 277 271 277 285 286 286 290 289 285 280 284 281 282 284 282 284 284 281 275 274 277 284 283 285 287 289 291 291 291
287 272 294 297 276 277 266 269 284 284 287 286 284 282 280 281 279 280 280 283 287 287 280 289 284 279 279 285 288 287 285 285 280 277 279 278 277 287 286 288 289 288 290 289 290
281 283 294 293 269 271 277 273 282 282 283 284 283 285 284 280 275 281 282 287 288 287 282 285 283 273 275 281 284 282 285 287 287 284 279 275 276 286 287 288 288 287 287 289 289
280 277 282 285 280 274 269 270 273 284 283 284 284 285 282 280 282 280 281 285 288 288 292 288 281 280 273 278 282 282 283 285 284 279 278 279 281 287 284 286 287 287 287 288 289
281 276 279 276 279 276 276 278 277 273 282 284 280 283 281 273 278 277 281 282 286 289 286 283 268 279 279 280 282 283 282 283 282 282 279 281 281 286 286 285 286 287 289 289 290
280 277 278 281 278 278 281 273 277 279 279 279 272 282 282 275 279 277 281 281 280 283 283 282 269 272 269 281 281 279 281 282 282 283 282 281 281 288 287 289 287 288 288 289 291
289 288 282 283 278 275 274 279 280 282 283 285 282 281 280 282 285 285 286 285 284 282 278 277 273 267 263 276 276 271 277 279 280 281 280 278 283 287 286 287 288 288 289 290 290
Wind_Speed
7 8 8 8 8 10 11 12 12 12 13 15 16 17 18 21 22 7 12 5 8 19 18 10 9 8 6 2 1 2 1 4 6 7 11 9 5 3 3 1 5 6 2 4 12
6 7 8 8 9 9 10 11 12 12 13 14 16 18 20 19 3 11 5 9 16 18 9 9 9 9 4 4 3 3 4 6 6 6 6 8 6 6 2 4 4 6 8 9 7
7 7 8 9 9 10 10 11 12 12 12 14 16 19 22 15 2 4 11 13 16 13 6 5 6 4 4 4 3 3 4 5 13 18 13 11 10 2 3 2 3 6 10 10 10
6 7 8 9 9 10 10 11 11 12 13 15 17 19 22 1 4 3 9 13 17 10 6 6 7 6 4 6 6 5 8 5 7 12 15 12 8 8 3 5 2 14 15 10 13
6 6 7 8 9 9 11 11 12 12 13 14 14 16 7 6 4 6 11 10 8 12 10 7 9 6 4 5 8 3 5 13 14 16 19 14 14 9 7 9 5 12 16 13 11
5 6 7 8 9 11 12 13 13 12 13 13 11 11 2 6 4 8 8 6 6 8 7 12 7 6 3 4 3 6 11 12 9 13 12 11 16 9 6 4 5 12 14 14 13
4 6 7 8 9 11 12 13 13 14 12 8 6 3 3 1 2 7 9 8 4 3 6 5 7 7 8 7 4 8 10 14 8 8 8 8 17 21 8 9 7 5 14 14 15
4 6 7 8 10 11 13 13 13 8 6 5 2 2 3 1 3 7 5 6 9 5 2 6 5 4 1 6 8 7 5 4 3 6 8 5 26 17 8 8 12 8 8 13 16
4 5 7 9 11 12 14 12 8 5 3 1 2 3 3 2 9 7 4 5 9 4 3 3 1 3 4 3 4 3 6 9 11 9 10 7 24 10 10 9 10 10 10 9 13
3 6 8 10 11 14 14 12 3 3 5 4 1 4 5 7 6 7 4 3 3 7 3 0 1 1 3 2 4 7 10 11 16 9 17 18 19 18 14 10 12 14 13 9 14
3 5 8 11 14 12 7 3 6 5 8 3 2 2 2 8 4 4 3 5 3 3 3 5 1 4 7 6 8 7 8 12 17 17 12 18 19 15 16 14 16 10 15 12 16
2 5 8 11 10 13 5 6 3 4 2 2 2 1 2 1 2 5 5 5 4 4 7 6 4 8 6 4 7 6 9 16 15 15 12 18 23 21 17 19 11 10 9 9 12
1 5 7 9 7 6 8 4 3 2 3 2 3 1 0 3 3 6 6 6 2 4 6 2 6 8 7 8 9 10 8 9 14 17 7 10 11 11 7 4 6 7 8 3 10
1 4 7 8 5 1 4 1 3 1 7 6 1 1 1 3 3 5 5 3 5 5 6 4 5 6 6 6 7 10 3 7 14 8 7 7 6 9 7 5 3 8 8 7 2
1 4 6 6 2 3 2 2 4 1 6 5 1 3 4 5 2 4 3 3 3 5 3 3 7 6 11 7 4 8 12 10 8 8 9 4 1 8 10 8 7 8 8 7 5
2 4 7 3 4 1 1 2 1 9 4 5 3 4 3 4 2 4 1 5 0 2 2 6 2 3 3 9 9 14 8 10 7 4 2 5 4 8 6 8 2 6 8 6 7
3 3 3 1 3 2 0 2 8 7 4 6 3 3 1 4 5 4 2 8 6 7 8 6 1 3 3 7 1 4 5 4 6 4 5 5 5 7 11 10 6 7 7 8 7
4 1 3 2 2 2 1 7 8 4 5 2 4 4 4 3 4 6 3 3 3 1 3 5 8 4 3 3 6 6 2 3 7 5 6 6 3 4 2 2 5 7 7 8 8
6 1 1 1 2 3 5 7 9 6 4 2 4 6 6 3 4 5 4 2 1 2 4 5 6 3 2 4 1 8 5 5 3 1 2 5 8 4 12 9 9 8 8 7 6
3 3 0 2 2 4 7 6 4 3 2 1 4 5 1 4 4 5 3 3 3 2 4 1 6 2 6 4 4 5 5 5 4 5 5 6 0 4 16 15 8 8 7 6 6
3 4 2 2 4 6 5 5 3 3 4 2 2 1 0 2 3 2 3 2 2 6 4 2 2 6 4 3 1 5 4 4 4 2 3 3 4 5 8 8 6 7 7 6 5
5 3 4 3 6 1 4 7 3 4 2 3 1 1 1 3 2 3 2 3 3 2 2 4 3 4 2 1 2 1 2 2 2 5 3 1 3 5 6 4 5 6 5 5 5
4 2 3 4 4 0 1 2 2 4 4 4 3 1 3 0 3 2 3 3 5 3 1 4 1 5 7 4 5 4 3 3 3 3 4 1 5 4 6 6 3 5 5 5 6
5 4 3 4 2 8 4 3 2 1 3 4 2 2 1 0 2 2 0 5 4 3 4 1 2 3 2 5 5 6 5 5 0 2 4 5 8 9 8 4 3 4 5 5 6
3 4 4 6 5 3 4 4 4 4 1 3 2 3 3 2 3 1 4 6 5 6 4 4 1 4 11 10 5 4 7 6 3 4 3 5 7 11 7 2 4 4 5 6 6
7 5 2 3 4 6 4 5 6 4 7 3 5 5 4 5 5 2 2 1 4 5 3 3 2 4 6 5 3 5 5 5 3 6 5 6 6 10 7 3 6 5 5 6 5
2 1 6 6 3 5 5 6 7 9 4 6 7 4 3 3 2 3 3 4 4 1 1 3 2 4 7 6 9 6 6 4 3 7 6 5 8 8 6 7 6 2 6 6 6
Wind_Direction
38 31 29 30 21 19 12 10 6 6 358 351 346 342 339 337 332 41 53 36 14 348 332 327 346 359 16 263 298 27 68 247 246 220 256 299 293 261 210 51 44 11 67 149 130
46 32 28 26 19 14 8 3 358 355 352 344 341 338 334 337 298 63 12 356 345 337 336 343 343 343 19 326 310 132 166 216 258 290 297 305 307 317 150 354 94 61 68 93 102
38 34 28 25 16 4 360 355 349 345 341 338 341 338 328 332 93 17 355 352 342 324 303 300 350 6 22 350 289 279 223 284 293 298 297 293 288 267 285 220 182 178 162 146 141
45 31 24 20 12 1 357 351 344 338 337 336 341 337 325 182 88 287 356 350 331 314 324 354 356 25 27 339 347 350 329 311 303 329 326 307 286 292 249 243 162 154 165 157 163
44 29 19 11 2 354 344 345 340 335 329 330 335 333 352 52 66 355 358 340 353 358 9 4 33 18 18 332 335 295 340 322 322 321 314 327 303 265 270 284 252 123 151 162 170
32 18 6 356 352 346 343 340 332 331 325 328 335 329 10 79 303 352 328 335 15 7 358 32 27 337 351 303 312 311 326 315 319 314 303 314 308 275 246 288 302 144 164 161 171
23 6 356 348 347 338 336 330 326 324 324 338 347 310 56 103 2 329 11 344 357 25 345 21 14 28 341 322 333 312 312 313 290 288 281 316 294 254 245 269 287 233 166 172 172
19 357 347 345 341 334 331 324 324 328 323 342 322 352 83 295 360 351 15 344 359 349 282 286 331 344 291 309 328 318 305 291 109 304 280 172 258 272 264 236 263 257 214 176 175
27 355 345 346 341 333 321 324 320 302 295 322 350 42 45 342 357 337 35 342 322 317 299 285 198 214 317 294 332 270 266 273 298 265 266 243 276 280 253 266 249 242 241 198 171
22 349 344 340 337 327 325 319 223 310 284 260 279 36 15 344 325 323 341 317 315 322 318 162 133 170 324 69 257 280 306 306 302 305 310 298 295 274 257 226 246 238 221 213 193
3 343 343 342 332 331 356 17 20 6 33 54 11 32 353 316 313 28 3 338 280 261 328 213 73 248 246 248 262 286 282 279 286 288 310 290 294 283 264 234 240 246 222 207 200
345 344 350 347 334 354 52 76 117 181 69 322 247 251 219 294 318 349 9 27 351 325 344 6 252 259 263 310 312 307 298 292 293 293 322 302 292 288 283 224 211 217 225 215 192
347 355 355 352 353 40 76 87 39 48 91 328 95 129 316 358 351 19 22 337 317 351 349 283 271 318 304 311 293 270 273 294 291 313 290 307 274 275 271 224 194 219 222 189 190
32 0 352 336 53 317 51 121 115 42 79 301 76 162 195 230 70 31 9 28 349 344 344 277 351 20 3 307 290 297 264 292 307 327 308 26 302 298 266 263 195 221 216 186 156
126 350 352 31 166 62 153 64 114 57 72 289 5 170 258 98 305 325 18 27 25 339 339 303 348 346 321 290 10 261 328 292 288 262 274 230 176 274 299 246 238 212 219 221 175
153 349 336 14 58 70 145 158 82 46 269 318 320 1 54 54 36 296 47 61 176 16 219 261 275 296 287 301 271 288 286 274 281 268 251 238 161 296 302 250 215 57 33 14 82
139 356 352 36 157 280 341 59 46 108 317 293 314 343 350 25 9 3 32 37 32 3 359 325 153 245 247 297 136 344 300 342 356 9 219 180 168 271 358 6 53 79 42 38 62
148 77 344 81 7 355 75 52 79 235 222 307 311 316 86 54 342 336 35 68 40 76 290 347 334 358 353 293 305 302 277 355 356 330 299 295 297 25 358 130 60 44 41 41 46
130 1 67 306 317 68 69 62 186 205 188 139 9 48 337 0 117 53 32 91 179 48 10 347 287 318 213 274 27 325 50 283 265 173 359 326 350 265 19 6 24 46 49 46 36
129 120 216 252 21 65 71 149 150 97 110 181 125 147 194 296 60 60 356 346 16 313 162 300 298 243 295 300 224 191 323 356 360 14 356 358 339 288 339 343 8 21 31 36 39
69 72 247 30 62 51 146 186 171 115 96 53 160 122 345 18 148 184 222 278 52 336 59 305 241 314 344 9 309 356 11 345 278 81 316 0 346 346 323 332 21 22 32 39 49
105 69 269 65 61 104 144 171 222 139 129 121 85 104 151 36 10 3 63 134 40 20 36 9 292 279 281 309 92 247 232 352 295 348 283 234 290 336 346 24 60 29 30 41 58
96 148 304 95 127 225 323 331 158 128 167 155 181 147 79 195 84 17 59 82 55 73 111 318 302 330 343 351 7 350 319 237 216 213 259 81 268 356 2 40 51 68 45 53 68
110 119 321 30 157 133 167 223 102 121 83 97 96 81 132 290 226 208 52 13 15 48 186 37 354 288 200 259 302 283 291 313 193 271 308 252 303 336 340 29 48 60 74 67 75
86 201 188 173 227 164 120 159 134 141 160 114 30 193 167 109 1 48 36 6 345 47 31 85 134 332 283 259 262 279 283 300 291 248 227 277 296 307 292 307 161 126 99 90 84
132 138 326 139 139 119 141 233 155 147 137 212 130 197 173 152 166 221 52 178 239 354 65 32 287 15 299 316 333 293 319 316 300 329 333 333 308 353 322 40 99 123 111 98 94
163 126 107 147 157 109 197 180 192 135 227 154 174 122 149 192 150 209 208 243 238 72 252 122 81 24 275 330 332 19 318 6 348 15 324 355 320 311 337 20 33 120 145 128 117